When you browse on this site, cookies collect data to enhance your experience and personalize the content and advertising you see.
Visit our Privacy Policy to learn more. By continuing to use the site, you agree to this use of cookies and data.
  • In United Kingdom
  • List of Countries
  • For 7 days
  • Water Temperature
  • Weather Map
  • Weather Widgets
  • user-avatar
    Login

    Hourly Weather Fetesti

    Today, 16 September, Monday

    Time Temperature Precipitation Wind Pressure Humidity
    00:00 +14°C° 0 mm 3 mps 761 mmHg 64%
    01:00 +14°C° 0 mm 2 mps 761 mmHg 67%
    02:00 +14°C° 0 mm 2 mps 760 mmHg 74%
    03:00 +14°C° 0 mm 2 mps 760 mmHg 75%
    04:00 +14°C° 0 mm 2 mps 760 mmHg 76%
    05:00 +14°C° 0 mm 2 mps 759 mmHg 78%
    06:00 +16°C° 0 mm 2 mps 759 mmHg 68%
    07:00 +18°C° 0 mm 3 mps 759 mmHg 59%
    08:00 +20°C° 0 mm 3 mps 759 mmHg 50%
    09:00 +22°C° 0 mm 3 mps 758 mmHg 42%
    10:00 +26°C° 0 mm 3 mps 758 mmHg 35%
    11:00 +29°C° 0 mm 4 mps 758 mmHg 28%
    12:00 +30°C° 0 mm 4 mps 757 mmHg 25%
    13:00 +32°C° 0 mm 4 mps 757 mmHg 22%
    14:00 +33°C° 0 mm 3 mps 756 mmHg 19%
    15:00 +33°C° 0 mm 3 mps 756 mmHg 19%
    16:00 +33°C° 0 mm 3 mps 755 mmHg 18%
    17:00 +33°C° 0 mm 3 mps 755 mmHg 18%
    18:00 +28°C° 0 mm 3 mps 755 mmHg 24%
    19:00 +25°C° 0 mm 2 mps 755 mmHg 31%
    20:00 +21°C° 0 mm 2 mps 755 mmHg 38%
    21:00 +20°C° 0 mm 2 mps 755 mmHg 41%
    22:00 +19°C° 0 mm 2 mps 755 mmHg 45%
    23:00 +18°C° 0 mm 2 mps 755 mmHg 48%

    Tomorrow, 17 September, Tuesday

    Time Temperature Precipitation Wind Pressure Humidity
    00:00 +18°C° 0 mm 2 mps 755 mmHg 49%
    01:00 +18°C° 0 mm 2 mps 755 mmHg 50%
    02:00 +18°C° 0 mm 1 mps 755 mmHg 51%
    03:00 +18°C° 0 mm 1 mps 755 mmHg 51%
    04:00 +16°C° 0 mm 1 mps 754 mmHg 50%
    05:00 +16°C° 0 mm 1 mps 754 mmHg 50%
    06:00 +18°C° 0 mm 2 mps 754 mmHg 44%
    07:00 +20°C° 0 mm 2 mps 754 mmHg 39%
    08:00 +21°C° 0 mm 2 mps 754 mmHg 34%
    09:00 +25°C° 0 mm 2 mps 754 mmHg 30%
    10:00 +28°C° 0 mm 2 mps 754 mmHg 25%
    11:00 +31°C° 0 mm 2 mps 754 mmHg 21%
    12:00 +32°C° 0 mm 2 mps 754 mmHg 20%
    13:00 +34°C° 0 mm 3 mps 753 mmHg 18%
    14:00 +35°C° 0 mm 3 mps 753 mmHg 17%
    15:00 +35°C° 0 mm 3 mps 753 mmHg 17%
    16:00 +34°C° 0 mm 3 mps 752 mmHg 17%
    17:00 +34°C° 0 mm 3 mps 752 mmHg 18%
    18:00 +31°C° 0 mm 3 mps 752 mmHg 23%
    19:00 +28°C° 0 mm 3 mps 753 mmHg 27%
    20:00 +25°C° 0 mm 2 mps 753 mmHg 32%
    21:00 +24°C° 0 mm 2 mps 753 mmHg 35%
    22:00 +24°C° 0 mm 2 mps 753 mmHg 39%
    23:00 +23°C° 0 mm 2 mps 753 mmHg 42%

    Day after tomorrow, 18 September, Wednesday

    Time Temperature Precipitation Wind Pressure Humidity
    00:00 +22°C° 0 mm 1 mps 753 mmHg 45%
    01:00 +21°C° 0 mm 1 mps 752 mmHg 48%
    02:00 +18°C° 0 mm 0 mps 752 mmHg 51%
    03:00 +18°C° 0 mm 0 mps 752 mmHg 51%
    04:00 +18°C° 0 mm 0 mps 752 mmHg 52%
    05:00 +20°C° 0 mm 1 mps 752 mmHg 52%
    06:00 +21°C° 0 mm 1 mps 753 mmHg 47%
    07:00 +23°C° 0 mm 2 mps 753 mmHg 43%
    08:00 +25°C° 0 mm 2 mps 753 mmHg 38%
    09:00 +26°C° 0 mm 4 mps 754 mmHg 37%
    10:00 +26°C° 0 mm 5 mps 754 mmHg 36%
    11:00 +27°C° 0 mm 6 mps 755 mmHg 35%
    12:00 +26°C° 0 mm 7 mps 755 mmHg 36%
    13:00 +26°C° 0 mm 8 mps 756 mmHg 36%
    14:00 +24°C° 0 mm 9 mps 756 mmHg 36%
    15:00 +22°C° 0 mm 7 mps 757 mmHg 44%
    16:00 +20°C° 0 mm 5 mps 757 mmHg 51%
    17:00 +18°C° 0 mm 4 mps 757 mmHg 58%
    18:00 +17°C° 0 mm 3 mps 758 mmHg 59%
    19:00 +15°C° 0 mm 2 mps 759 mmHg 60%
    20:00 +14°C° 0 mm 1 mps 760 mmHg 61%
    21:00 +14°C° 0 mm 1 mps 760 mmHg 59%
    22:00 +14°C° 0 mm 1 mps 760 mmHg 57%
    23:00 +13°C° 0 mm 0 mps 761 mmHg 55%

    19 September, Thursday

    Time Temperature Precipitation Wind Pressure Humidity
    00:00 +13°C° 0 mm 1 mps 761 mmHg 55%
    01:00 +12°C° 0 mm 2 mps 762 mmHg 54%
    02:00 +11°C° 0 mm 3 mps 762 mmHg 54%
    03:00 +10°C° 0 mm 3 mps 762 mmHg 55%
    04:00 +9°C° 0 mm 3 mps 762 mmHg 56%
    05:00 +9°C° 0 mm 3 mps 762 mmHg 58%
    06:00 +10°C° 0 mm 3 mps 762 mmHg 53%
    07:00 +12°C° 0 mm 3 mps 762 mmHg 48%
    08:00 +14°C° 0 mm 4 mps 762 mmHg 43%
    09:00 +17°C° 0 mm 4 mps 762 mmHg 41%
    10:00 +19°C° 0 mm 3 mps 762 mmHg 39%
    11:00 +21°C° 0 mm 3 mps 762 mmHg 37%
    12:00 +21°C° 0 mm 4 mps 761 mmHg 38%
    13:00 +22°C° 0 mm 4 mps 760 mmHg 39%
    14:00 +22°C° 0 mm 4 mps 760 mmHg 40%
    15:00 +21°C° 0 mm 4 mps 759 mmHg 42%
    16:00 +21°C° 0 mm 5 mps 759 mmHg 44%
    17:00 +21°C° 0 mm 5 mps 759 mmHg 45%
    18:00 +19°C° 0 mm 4 mps 759 mmHg 51%
    19:00 +17°C° 0 mm 4 mps 759 mmHg 57%
    20:00 +15°C° 0 mm 4 mps 759 mmHg 63%
    21:00 +14°C° 0 mm 3 mps 760 mmHg 65%
    22:00 +13°C° 0 mm 3 mps 760 mmHg 67%
    23:00 +12°C° 0 mm 3 mps 760 mmHg 69%

    20 September, Friday

    Time Temperature Precipitation Wind Pressure Humidity
    00:00 +12°C° 0 mm 3 mps 760 mmHg 67%
    01:00 +11°C° 0 mm 3 mps 760 mmHg 66%
    02:00 +11°C° 0 mm 3 mps 760 mmHg 64%
    03:00 +11°C° 0 mm 4 mps 760 mmHg 65%
    04:00 +10°C° 0 mm 4 mps 760 mmHg 65%
    05:00 +10°C° 0 mm 4 mps 760 mmHg 66%
    06:00 +10°C° 0 mm 5 mps 760 mmHg 58%
    07:00 +11°C° 0 mm 6 mps 760 mmHg 50%
    08:00 +13°C° 0 mm 6 mps 760 mmHg 42%
    09:00 +15°C° 0 mm 7 mps 760 mmHg 38%
    10:00 +16°C° 0 mm 7 mps 761 mmHg 34%
    11:00 +18°C° 0 mm 7 mps 761 mmHg 30%
    12:00 +18°C° 0 mm 7 mps 761 mmHg 28%
    13:00 +20°C° 0 mm 7 mps 761 mmHg 27%
    14:00 +20°C° 0 mm 7 mps 760 mmHg 26%
    15:00 +20°C° 0 mm 7 mps 761 mmHg 27%
    16:00 +19°C° 0 mm 6 mps 761 mmHg 27%
    17:00 +17°C° 0 mm 5 mps 761 mmHg 28%
    18:00 +15°C° 0 mm 4 mps 761 mmHg 31%
    19:00 +13°C° 0 mm 4 mps 762 mmHg 34%
    20:00 +11°C° 0 mm 3 mps 763 mmHg 37%
    21:00 +10°C° 0 mm 3 mps 763 mmHg 38%
    22:00 +10°C° 0 mm 3 mps 764 mmHg 40%
    23:00 +9°C° 0 mm 3 mps 764 mmHg 41%

    21 September, Saturday

    Time Temperature Precipitation Wind Pressure Humidity
    00:00 +8°C° 0 mm 2 mps 764 mmHg 45%
    01:00 +7°C° 0 mm 2 mps 764 mmHg 49%
    02:00 +7°C° 0 mm 1 mps 765 mmHg 54%
    03:00 +7°C° 0 mm 1 mps 765 mmHg 54%
    04:00 +7°C° 0 mm 1 mps 765 mmHg 55%
    05:00 +7°C° 0 mm 1 mps 765 mmHg 56%
    06:00 +8°C° 0 mm 1 mps 765 mmHg 51%
    07:00 +10°C° 0 mm 1 mps 765 mmHg 47%
    08:00 +12°C° 0 mm 1 mps 765 mmHg 42%
    09:00 +14°C° 0 mm 2 mps 765 mmHg 37%
    10:00 +16°C° 0 mm 2 mps 765 mmHg 32%
    11:00 +17°C° 0 mm 2 mps 765 mmHg 28%
    12:00 +18°C° 0 mm 3 mps 765 mmHg 25%
    13:00 +19°C° 0 mm 3 mps 764 mmHg 23%
    14:00 +20°C° 0 mm 3 mps 764 mmHg 21%
    15:00 +20°C° 0 mm 3 mps 763 mmHg 21%
    16:00 +19°C° 0 mm 2 mps 763 mmHg 21%
    17:00 +19°C° 0 mm 2 mps 763 mmHg 22%
    18:00 +17°C° 0 mm 2 mps 763 mmHg 26%
    19:00 +15°C° 0 mm 2 mps 764 mmHg 31%
    20:00 +13°C° 0 mm 1 mps 764 mmHg 35%
    21:00 +12°C° 0 mm 2 mps 764 mmHg 41%
    22:00 +10°C° 0 mm 2 mps 764 mmHg 47%
    23:00 +9°C° 0 mm 3 mps 764 mmHg 53%
    Show more